Hyannis, MA

1:34 PM EDT on August 20, 2017 (GMT -0400)
Barnstable Municipal-Boardman-Polando Field

Weather History for KHYA - August, 2012

Change the Weather History Date:

Saturday, August 11, 2012

  Actual Average Record
Temperature  
Mean Temperature 76 °F -  
Max Temperature 80 °F 77 °F 95 °F (1949)
Min Temperature 73 °F 63 °F 45 °F (1963)
Cooling Degree Days 11    
Growing Degree Days 26 (Base 50)    
Moisture  
Dew Point 74 °F    
Average Humidity 94    
Maximum Humidity 100    
Minimum Humidity 81    
Precipitation  
Precipitation 0.13 in - - ()
Sea Level Pressure  
Sea Level Pressure 29.90 in    
Wind  
Wind Speed 11 mph (SSW)    
Max Wind Speed 15 mph    
Max Gust Speed 22 mph    
Visibility 10 miles    
Events Rain    
Averages and records for this station are not official NWS values.
T = Trace of Precipitation, MM = Missing Value Source: NWS Daily Summary

Daily Weather History Graph

Daily Weather History Graph

Search for Another Location

Airport or City:

Trip Planner

Search our weather history database for the weather conditions in past years. The results will help you decide how hot, cold, wet, or windy it might be!

Date:

Astronomy

Aug. 11, 2012 Rise Set
Actual Time 5:45 AM EDT 7:45 PM EDT
Civil Twilight 5:15 AM EDT 8:15 PM EDT
Nautical Twilight 4:38 AM EDT 8:52 PM EDT
Astronomical Twilight 3:58 AM EDT 9:32 PM EDT
Moon 12:10 AM EDT (8/11) 3:18 PM EDT (8/11)
Length of Visible Light 15h 00m
Length of Day
13h 59m
Waning Crescent, 33% of the Moon is Illuminated
Aug 11
Waning Crescent
Aug 17
New
Aug 24
First Quarter
Aug 31
Full
Sep 8
Last Quarter

Hourly Weather History & Observations

Time (EDT) Temp. Dew Point Humidity Pressure Visibility Wind Dir Wind Speed Gust Speed Precip Events Conditions
12:03 AM 75.2 °F 75.2 °F 100% 29.84 in 10.0 mi South 9.2 mph - N/A   Overcast
12:11 AM 75.2 °F 75.2 °F 100% 29.84 in 9.0 mi SSW 12.7 mph 19.6 mph N/A   Overcast
12:56 AM 75.9 °F 75.0 °F 97% 29.84 in 8.0 mi SSW 10.4 mph - N/A   Overcast
1:56 AM 75.9 °F 75.0 °F 97% 29.84 in 7.0 mi SSW 10.4 mph - 0.04 in Rain Light Rain
2:56 AM 75.9 °F 75.0 °F 97% 29.84 in 9.0 mi SSW 11.5 mph 19.6 mph 0.00 in   Overcast
3:56 AM 75.9 °F 75.0 °F 97% 29.84 in 9.0 mi SSW 11.5 mph - N/A   Overcast
4:56 AM 75.9 °F 75.0 °F 97% 29.84 in 10.0 mi SW 11.5 mph - N/A   Overcast
5:05 AM 75.2 °F 75.2 °F 100% 29.84 in 10.0 mi SSW 10.4 mph - N/A   Overcast
5:16 AM 75.2 °F 75.2 °F 100% 29.84 in 10.0 mi SSW 9.2 mph - N/A   Overcast
5:36 AM 75.2 °F 75.2 °F 100% 29.85 in 9.0 mi SSW 11.5 mph - N/A   Overcast
5:44 AM 75.2 °F 75.2 °F 100% 29.86 in 9.0 mi SW 8.1 mph - N/A   Overcast
5:56 AM 75.9 °F 75.0 °F 97% 29.86 in 8.0 mi SW 8.1 mph - N/A   Overcast
6:56 AM 75.9 °F 75.0 °F 97% 29.88 in 8.0 mi SW 8.1 mph - N/A   Overcast
7:56 AM 75.9 °F 75.0 °F 97% 29.91 in 6.0 mi SSW 9.2 mph - 0.02 in Rain Light Rain
8:56 AM 75.9 °F 75.0 °F 97% 29.91 in 9.0 mi SSW 10.4 mph - 0.06 in   Overcast
9:16 AM 75.2 °F 71.6 °F 89% 29.91 in 10.0 mi SW 11.5 mph - N/A   Mostly Cloudy
9:26 AM 73.4 °F 71.6 °F 94% 29.90 in 10.0 mi SSW 10.4 mph - N/A   Scattered Clouds
9:56 AM 75.0 °F 71.1 °F 87% 29.91 in 10.0 mi SSW 9.2 mph - 0.00 in Rain Light Rain
10:47 AM 75.2 °F 71.6 °F 89% 29.92 in 10.0 mi SW 15.0 mph - 0.00 in   Scattered Clouds
10:56 AM 75.0 °F 72.0 °F 90% 29.92 in 10.0 mi SW 10.4 mph 21.9 mph 0.00 in   Scattered Clouds
11:08 AM 75.2 °F 73.4 °F 94% 29.91 in 10.0 mi SW 10.4 mph - 0.00 in Rain Light Rain
11:17 AM 75.2 °F 73.4 °F 94% 29.92 in 10.0 mi SW 10.4 mph - 0.00 in Rain Light Rain
11:54 AM 75.2 °F 73.4 °F 94% 29.92 in 10.0 mi SSW 10.4 mph - 0.01 in   Mostly Cloudy
11:56 AM 75.9 °F 73.9 °F 94% 29.92 in 10.0 mi SSW 11.5 mph - 0.01 in   Mostly Cloudy
12:04 PM 75.2 °F 73.4 °F 94% 29.91 in 10.0 mi SSW 10.4 mph - 0.00 in Rain Light Rain
12:18 PM 77.0 °F 73.4 °F 89% 29.91 in 10.0 mi SSW 9.2 mph - 0.00 in   Mostly Cloudy
12:56 PM 75.9 °F 73.0 °F 91% 29.91 in 10.0 mi SSW 6.9 mph - 0.00 in Rain Light Rain
1:56 PM 79.0 °F 73.9 °F 84% 29.91 in 10.0 mi South 8.1 mph - 0.00 in   Mostly Cloudy
2:56 PM 78.1 °F 72.0 °F 81% 29.91 in 10.0 mi SSW 12.7 mph 20.7 mph N/A   Mostly Cloudy
3:03 PM 78.8 °F 73.4 °F 83% 29.91 in 10.0 mi South 10.4 mph 20.7 mph N/A   Partly Cloudy
3:56 PM 79.0 °F 73.0 °F 82% 29.91 in 10.0 mi SSW 12.7 mph 20.7 mph N/A   Mostly Cloudy
4:54 PM 77.0 °F 73.4 °F 89% 29.90 in 10.0 mi SSW 12.7 mph 19.6 mph N/A   Overcast
4:56 PM 77.0 °F 73.9 °F 90% 29.90 in 10.0 mi SSW 11.5 mph 18.4 mph N/A   Overcast
5:56 PM 77.0 °F 75.0 °F 94% 29.91 in 10.0 mi SSW 12.7 mph 18.4 mph 0.00 in   Overcast
6:56 PM 77.0 °F 75.0 °F 94% 29.93 in 9.0 mi SSW 10.4 mph - N/A   Overcast
7:28 PM 77.0 °F 75.2 °F 94% 29.92 in 9.0 mi SSW 12.7 mph - N/A   Overcast
7:56 PM 77.0 °F 75.0 °F 94% 29.93 in 10.0 mi SSW 11.5 mph - N/A   Overcast
8:56 PM 77.0 °F 75.0 °F 94% 29.94 in 10.0 mi SSW 11.5 mph - N/A   Overcast
9:56 PM 77.0 °F 75.0 °F 94% 29.96 in 9.0 mi SSW 9.2 mph - N/A   Overcast
10:56 PM 75.9 °F 75.0 °F 97% 29.95 in 9.0 mi SSW 9.2 mph - N/A   Mostly Cloudy
11:10 PM 75.2 °F 73.4 °F 94% 29.95 in 10.0 mi SSW 11.5 mph - N/A   Scattered Clouds
11:56 PM 75.9 °F 73.9 °F 94% 29.96 in 10.0 mi SSW 11.5 mph 20.7 mph N/A   Partly Cloudy